User: anonymous
Location: Unspecified
(0.0000°N, 0.0000°E)
Time: 22:54:38
(UTC+00:00)
Language:

Courier 1B Rocket - Orbit

View from above orbital plane
View from above orbital plane
View from above satellite
View from above satellite

Ground track
Ground track

The orbit data is extracted from the following two-line orbital elements,

1 00059U 60013B   14210.06362652  .00000099  00000-0  93305-5 0  9399
2 00059 028.2503 103.7489 0189392 238.1928 120.0045 13.52895517655670
Epoch (UTC): 29 July 2014 01:31:37
Eccentricity: 0.0189392
inclination: 28.2503°
perigee height: 921 km
apogee height: 1202 km
right ascension of ascending node: 103.7489°
argument of perigee: 238.1928°
revolutions per day: 13.52895517
mean anomaly at epoch: 120.0045°
orbit number at epoch: 65567

The dashed part of the orbit path shows where the satellite is in the earth's shadow,  

DLR